星链-30420 (STARLINK-30420 )

导读

STARLINK-30420是美国太空探索技术公司 SpaceX 星链星座中的一颗卫星,于2023年9月12日发射升空,属于星链互联网卫星组网的一部分。星链计划旨在构建全球卫星互联网星座,为全球偏远地区、海洋等网络覆盖薄弱区域提供高速低延迟的宽带互联网服务,该卫星加入星座后进一步扩充了星链系统的服务覆盖范围与通信能力。

基本信息
目录编号:
57846
目录名称:
STARLINK-30420
国际标识:
2023-141G
轨道中心:
EARTH
卫星名称:
星链-30420
卫星全名:
星链-30420 (STARLINK-30420 )
卫星状态:
已陨落 最后检测时间 2024-12-31
发射日期:
2023-09-12 UTC
国别 :
美国 (US)
星等 :
--
轨道信息
数据来源 国际轨道数据
星历时间: 2025-01-01T00:53:56+0800
轨道信息已过期533天
半长轴: 6558.805km
偏心率: 0.0006992
轨道倾角: 53.114°
近地点辐角 332.646°
升交点赤经 120.635°
平近点角 95.852°
近地点: 176.084km
远地点: 185.256km
周期: 88.104分钟
每日圈数: 16.344279
详细信息
固有亮度:
5
最大亮度:
0.3
卫星平台:
Starlink v2.0 mini
覆盖范围:
全球
运营商:
太空探索技术公司
运营商所在国:
美国
制造商(研发单位):
太空探索技术公司
制造商所在国:
美国
使用方式:
暂无
卫星简介
星链(Starlink)计划是由太空探索技术公司(SpaceX)提出的一个巨型低轨卫星互联网星座项目,计划在2019年至2024年间在太空搭建由约1.2万颗卫星组成的“星链”网络,其中1584颗将部署在地球上空550千米处的近地轨道,并从2020年开始工作。该卫星仍在工作。